This is the latest recevied weather packets stored in our database for station/object K7ZQU-7. If no packets are shown the sender has not sent any weather packets the latest 10 day(s).
| Time | Temp. | Humidity | Pressure | Rain* | Wind** | Luminosity | Snow |
|---|---|---|---|---|---|---|---|
| 1778028383 | 18.89° C | 46% | 1014.9 hPa | 0 mm | 2.24 m/s, 312° | - | - |
| 1778028084 | 18.89° C | 45% | 1014.9 hPa | 0 mm | 1.34 m/s, 295° | - | - |
| 1778027785 | 18.89° C | 45% | 1015 hPa | 0 mm | 2.24 m/s, 335° | - | - |
| 1778027184 | 18.89° C | 45% | 1014.9 hPa | 0 mm | 0.89 m/s, 315° | - | - |
| 1778026886 | 18.89° C | 46% | 1014.9 hPa | 0 mm | 0.45 m/s, 290° | - | - |
| 1778026289 | 18.89° C | 48% | 1014.7 hPa | 0 mm | 1.79 m/s, 322° | - | - |
| 1778025992 | 18.89° C | 48% | 1014.7 hPa | 0 mm | 1.34 m/s, 333° | - | - |
| 1778025687 | 18.89° C | 46% | 1014.9 hPa | 0 mm | 3.58 m/s, 294° | - | - |
| 1778025389 | 18.89° C | 46% | 1014.7 hPa | 0 mm | 2.68 m/s, 338° | - | - |
| 1778025090 | 19.44° C | 45% | 1014.9 hPa | 0 mm | 1.34 m/s, 290° | - | - |
| 1778024791 | 19.44° C | 44% | 1014.7 hPa | 0 mm | 3.13 m/s, 307° | - | - |
| 1778024190 | 19.44° C | 43% | 1014.7 hPa | 0 mm | 2.68 m/s, 347° | - | - |
| 1778023892 | 19.44° C | 46% | 1014.7 hPa | 0 mm | 1.34 m/s, 284° | - | - |
| 1778023593 | 19.44° C | 46% | 1014.7 hPa | 0 mm | 2.24 m/s, 321° | - | - |
| 1778023294 | 19.44° C | 44% | 1014.7 hPa | 0 mm | 1.79 m/s, 240° | - | - |
| 1778022992 | 20° C | 45% | 1014.7 hPa | 0 mm | 1.79 m/s, 315° | - | - |
| 1778022693 | 20° C | 45% | 1014.6 hPa | 0 mm | 1.79 m/s, 295° | - | - |
| 1778022395 | 19.44° C | 45% | 1014.6 hPa | 0 mm | 2.24 m/s, 229° | - | - |
| 1778022096 | 19.44° C | 47% | 1014.9 hPa | 0 mm | 2.24 m/s, 298° | - | - |
| 1778021495 | 19.44° C | 45% | 1014.7 hPa | 0 mm | 2.24 m/s, 332° | - | - |
| 1778020599 | 19.44° C | 47% | 1014.7 hPa | 0 mm | 1.34 m/s, 323° | - | - |
| 1778020300 | 18.89° C | 50% | 1014.7 hPa | 0 mm | 1.79 m/s, 328° | - | - |
| 1778019998 | 18.89° C | 51% | 1014.6 hPa | 0 mm | 1.79 m/s, 291° | - | - |
| 1778019699 | 18.89° C | 51% | 1014.7 hPa | 0 mm | 0 m/s | - | - |
| 1778019101 | 19.44° C | 50% | 1014.7 hPa | 0 mm | 0.89 m/s, 246° | - | - |
* Rain latest hour (hover to see other rain measurements)
** Current wind speed in m/s (hover to see current wind gust speed)